Muskegon, MI

6:53 AM EDT on September 26, 2017 (GMT -0400)
Muskegon County

Weather History for KMKG - February, 2013

Change the Weather History Date:

Saturday, February 23, 2013

  Actual Average Record
Temperature  
Mean Temperature 31 °F 29 °F  
Max Temperature 33 °F 35 °F 60 °F (2000)
Min Temperature 28 °F 22 °F -9 °F (1934)
Degree Days  
Heating Degree Days 34 36  
Month to date heating degree days 943 883  
Since 1 July heating degree days 4256 4555  
Cooling Degree Days 0 0  
Month to date cooling degree days 0 0  
Year to date cooling degree days 0 0  
Moisture  
Dew Point 22 °F    
Average Humidity 74    
Maximum Humidity 85    
Minimum Humidity 63    
Precipitation  
Precipitation 0.12 in 0.07 in 2.05 in (1921)
Month to date precipitation 3.25 1.46  
Year to date precipitation 8.73 3.49  
Snow  
Snow 2.80 in 0.60 in 7.00 in (1993)
Month to date snowfall 46.7 16.6  
Since 1 July snowfall 86.3 79.7  
Snow Depth 10.00 in    
Sea Level Pressure  
Sea Level Pressure 29.87 in    
Wind  
Wind Speed 12 mph (WSW)    
Max Wind Speed 20 mph    
Max Gust Speed 25 mph    
Visibility 4 miles    
Events Snow    
T = Trace of Precipitation, MM = Missing Value Source: NWS Daily Summary

Daily Weather History Graph

Daily Weather History Graph

Search for Another Location

Airport or City:

Trip Planner

Search our weather history database for the weather conditions in past years. The results will help you decide how hot, cold, wet, or windy it might be!

Date:

Astronomy

Feb. 23, 2013 Rise Set
Actual Time 7:30 AM EST 6:26 PM EST
Civil Twilight 7:01 AM EST 6:55 PM EST
Nautical Twilight 6:28 AM EST 7:28 PM EST
Astronomical Twilight 5:55 AM EST 8:01 PM EST
Moon 4:35 PM EST (2/23) 5:54 AM EST (2/23)
Length of Visible Light 11h 54m
Length of Day
10h 56m
Waxing Gibbous, 95% of the Moon is Illuminated
Feb 23
Waxing Gibbous
Feb 25
Full
Mar 4
Last Quarter
Mar 11
New
Mar 19
First Quarter

Hourly Weather History & Observations

Time (EST) Temp. Windchill Dew Point Humidity Pressure Visibility Wind Dir Wind Speed Gust Speed Precip Events Conditions
12:55 AM 33.1 °F 23.9 °F 27.0 °F 78% 29.85 in 7.0 mi WSW 12.7 mph - 0.00 in Snow Light Snow
1:55 AM 33.1 °F 23.4 °F 27.0 °F 78% 29.84 in 8.0 mi WSW 13.8 mph 19.6 mph 0.00 in Snow Light Snow
2:55 AM 32.0 °F 22.5 °F 25.0 °F 75% 29.85 in 9.0 mi WSW 12.7 mph - 0.00 in   Overcast
3:55 AM 32.0 °F 22.5 °F 25.0 °F 75% 29.83 in 6.0 mi WSW 12.7 mph - 0.00 in Snow Light Snow
4:18 AM 32.0 °F 24.8 °F 26.6 °F 80% 29.81 in 6.0 mi WSW 8.1 mph - 0.00 in Snow Light Snow
4:33 AM 32.0 °F 23.6 °F 24.8 °F 75% 29.81 in 5.0 mi WSW 10.4 mph - 0.00 in Snow Light Snow
4:55 AM 32.0 °F 23.6 °F 26.1 °F 79% 29.84 in 4.0 mi WSW 10.4 mph - 0.00 in Snow Light Snow
5:55 AM 30.9 °F 21.7 °F 24.1 °F 76% 29.86 in 4.0 mi West 11.5 mph - 0.01 in Snow Light Snow
6:55 AM 30.9 °F 22.8 °F 23.0 °F 72% 29.86 in 9.0 mi WSW 9.2 mph - 0.00 in Snow Light Snow
7:22 AM 30.2 °F 20.8 °F 21.2 °F 69% 29.84 in 9.0 mi WSW 11.5 mph - 0.00 in Snow Light Snow
7:55 AM 30.9 °F 19.8 °F 21.9 °F 69% 29.87 in 10.0 mi WSW 16.1 mph - 0.00 in   Overcast
7:57 AM 30.2 °F 18.9 °F 21.2 °F 69% 29.85 in 10.0 mi WSW 16.1 mph - N/A   Overcast
8:55 AM 30.9 °F 21.2 °F 19.0 °F 61% 29.88 in 10.0 mi WSW 12.7 mph - N/A   Overcast
9:55 AM 30.0 °F 19.1 °F 19.9 °F 66% 29.87 in 9.0 mi WSW 15.0 mph 23.0 mph 0.00 in Snow Light Snow
10:16 AM 30.2 °F 19.3 °F 21.2 °F 69% 29.85 in 2.0 mi WSW 15.0 mph - 0.00 in Snow Light Snow
10:19 AM 30.2 °F 19.3 °F 21.2 °F 69% 29.85 in 1.5 mi WSW 15.0 mph - 0.00 in Snow Light Snow
10:55 AM 30.0 °F 20.0 °F 24.1 °F 79% 29.88 in 1.0 mi WSW 12.7 mph 18.4 mph 0.00 in Snow Light Snow
11:37 AM 30.2 °F 20.2 °F 21.2 °F 69% 29.86 in 2.0 mi WSW 12.7 mph - 0.00 in Snow Light Snow
11:55 AM 28.9 °F 19.2 °F 21.9 °F 75% 29.89 in 1.8 mi West 11.5 mph 19.6 mph 0.00 in Snow Light Snow
12:08 PM 30.2 °F 20.8 °F 19.4 °F 64% 29.86 in 2.0 mi WSW 11.5 mph 19.6 mph 0.00 in Snow Light Snow
12:22 PM 30.2 °F 20.2 °F 17.6 °F 60% 29.87 in 2.5 mi WSW 12.7 mph - 0.00 in Snow Light Snow
12:30 PM 30.2 °F 20.2 °F 17.6 °F 60% 29.87 in 3.0 mi WSW 12.7 mph - 0.00 in Snow Light Snow
12:55 PM 30.0 °F 18.3 °F 19.0 °F 64% 29.89 in 3.0 mi WSW 17.3 mph - 0.00 in Snow Light Snow
1:11 PM 28.4 °F 17.0 °F 19.4 °F 69% 29.87 in 0.8 mi WSW 15.0 mph - 0.00 in Snow Light Snow
1:55 PM 28.9 °F 18.6 °F 21.9 °F 75% 29.88 in 0.8 mi SW 12.7 mph - 0.00 in Snow Light Snow
2:01 PM 28.4 °F 17.0 °F 21.2 °F 74% 29.85 in 2.0 mi SW 15.0 mph - 0.00 in Snow Light Snow
2:10 PM 30.2 °F 20.8 °F 19.4 °F 64% 29.85 in 8.0 mi WSW 11.5 mph - 0.00 in Snow Light Snow
2:34 PM 30.2 °F 19.3 °F 19.4 °F 64% 29.85 in 10.0 mi WSW 15.0 mph - 0.00 in   Overcast
2:55 PM 30.0 °F 20.0 °F 19.9 °F 66% 29.87 in 10.0 mi WSW 12.7 mph - 0.00 in   Overcast
3:23 PM 30.2 °F 21.3 °F 19.4 °F 64% 29.84 in 10.0 mi WSW 10.4 mph - N/A   Overcast
3:51 PM 30.2 °F 19.8 °F 19.4 °F 64% 29.85 in 8.0 mi WSW 13.8 mph 19.6 mph 0.00 in   Overcast
3:55 PM 30.0 °F 20.0 °F 19.9 °F 66% 29.88 in 5.0 mi WSW 12.7 mph 19.6 mph 0.00 in Snow Light Snow
4:17 PM 30.2 °F 20.2 °F 21.2 °F 69% 29.86 in 3.0 mi WSW 12.7 mph 16.1 mph 0.00 in Snow Light Snow
4:25 PM 30.2 °F 19.8 °F 21.2 °F 69% 29.86 in 1.8 mi WSW 13.8 mph - 0.00 in Snow Light Snow
4:41 PM 28.4 °F 19.1 °F 23.0 °F 80% 29.86 in 0.8 mi WSW 10.4 mph - 0.01 in Snow Light Snow
4:55 PM 28.9 °F 19.2 °F 23.0 °F 78% 29.88 in 0.8 mi WSW 11.5 mph - 0.01 in Snow Light Snow
5:06 PM 30.2 °F 21.9 °F 21.2 °F 69% 29.86 in 0.8 mi West 9.2 mph - 0.00 in Snow Light Snow
5:35 PM 30.2 °F 21.3 °F 21.2 °F 69% 29.86 in 0.8 mi WSW 10.4 mph - 0.00 in Snow Light Snow
5:55 PM 30.0 °F 21.1 °F 21.9 °F 72% 29.89 in 2.0 mi WSW 10.4 mph - 0.00 in Snow Light Snow
6:02 PM 28.4 °F 19.7 °F 23.0 °F 80% 29.87 in 1.0 mi West 9.2 mph - 0.00 in Snow Light Snow
6:55 PM 30.0 °F 21.1 °F 21.9 °F 72% 29.90 in 1.2 mi West 10.4 mph - 0.00 in Snow Light Snow
7:15 PM 30.2 °F 21.9 °F 21.2 °F 69% 29.88 in 3.0 mi WSW 9.2 mph - 0.00 in Snow Light Snow
7:55 PM 30.0 °F 22.4 °F 21.0 °F 69% 29.91 in 5.0 mi WSW 8.1 mph - 0.00 in Snow Light Snow
8:41 PM 30.2 °F 23.4 °F 21.2 °F 69% 29.89 in 5.0 mi West 6.9 mph - 0.00 in Snow Light Snow
8:55 PM 30.9 °F 22.8 °F 21.0 °F 67% 29.91 in 9.0 mi WSW 9.2 mph - 0.00 in Snow Light Snow
9:55 PM 30.9 °F 22.8 °F 19.9 °F 64% 29.91 in 9.0 mi West 9.2 mph - 0.00 in Snow Light Snow
10:13 PM 28.4 °F 18.0 °F 23.0 °F 80% 29.89 in 2.0 mi WSW 12.7 mph - 0.00 in Snow Light Snow
10:19 PM 28.4 °F 19.1 °F 23.0 °F 80% 29.89 in 1.8 mi WSW 10.4 mph - 0.00 in Snow Light Snow
10:34 PM 28.4 °F 19.7 °F 24.8 °F 86% 29.89 in 0.8 mi West 9.2 mph - 0.00 in Snow Light Snow
10:45 PM 28.4 °F 20.4 °F 24.8 °F 86% 29.89 in 0.8 mi West 8.1 mph - 0.02 in Snow Light Snow
10:55 PM 28.9 °F 20.4 °F 24.1 °F 82% 29.92 in 0.8 mi WSW 9.2 mph - 0.02 in Snow Light Snow
11:02 PM 28.4 °F 19.1 °F 24.8 °F 86% 29.89 in 4.0 mi West 10.4 mph - N/A Snow Light Snow
11:55 PM 28.9 °F 19.8 °F 21.9 °F 75% 29.91 in 6.0 mi WSW 10.4 mph - 0.00 in Snow Light Snow